Date String (YYYY-MM-DD hh:mm:ss) UTC,Instrument flags,Ambient pressure (hPa),Sample flow (lpm),Bypass flow (lpm),Sample temperature (°C),Ambient temperature (°C),ASC tube jacket temperature (°C),LED temperature (°C),Box temperature (°C),Sample RH (%),Span deviation,Mass concentration (μg/m³),Mass concentration (μg/m³),Mass concentration (μg/m³)
DateTimeUTC,F1_M11,P_M11,Q1_M11,Q2_M11,T1_M11,T2_M11,T3_M11,T4_M11,T5_M11,U1_M11,ZSPAN_M11,X0_M11,X2_M11,X1_M11
2023-02-28 03:00:00,,0816.1,5.03,0.00,21.9,21.9,00.0,30.6,23.8,08.9,0000.0,0002.98,0000.89,0000.44
2023-02-28 03:01:00,,0816.1,5.00,0.00,21.9,21.3,00.0,30.6,23.6,08.9,0000.0,0002.96,0000.89,0000.45
2023-02-28 03:02:00,,0816.2,4.96,0.00,21.8,20.9,00.0,30.6,23.4,08.9,0000.0,0003.03,0000.90,0000.46
2023-02-28 03:03:00,,0816.2,4.98,0.00,21.8,20.4,00.0,30.6,23.2,08.9,0000.0,0002.87,0000.87,0000.46
2023-02-28 03:04:00,,0816.3,5.00,0.00,21.7,20.1,00.0,30.6,23.1,08.9,0000.0,0001.73,0000.86,0000.47
2023-02-28 03:05:00,,0816.3,5.00,0.00,21.6,19.9,00.0,30.6,23.0,09.0,0000.0,0001.80,0000.88,0000.48
2023-02-28 03:06:00,,0816.2,4.99,0.00,21.6,19.7,00.0,30.5,22.9,08.8,0000.0,0001.80,0000.91,0000.50
2023-02-28 03:07:00,,0816.3,5.01,0.00,21.5,19.5,00.0,30.5,22.8,08.9,0000.0,0001.75,0000.89,0000.51
2023-02-28 03:08:00,,0816.3,5.00,0.00,21.4,19.4,00.0,30.4,22.8,08.9,0000.0,0001.95,0000.93,0000.51
2023-02-28 03:09:00,,0816.3,5.00,0.00,21.4,19.9,00.0,30.4,22.9,08.9,0000.0,0002.11,0000.96,0000.51
2023-02-28 03:10:00,,0816.2,4.99,0.00,21.5,21.3,00.0,30.4,23.3,08.7,0000.0,0002.09,0000.94,0000.51
2023-02-28 03:11:00,,0816.3,4.97,0.00,21.7,22.5,00.0,30.4,23.7,08.9,0000.0,0002.12,0000.94,0000.51
2023-02-28 03:12:00,,0816.3,4.97,0.00,21.8,22.3,00.0,30.5,23.7,08.7,0000.0,0002.34,0001.02,0000.51
2023-02-28 03:13:00,,0816.3,5.00,0.00,21.8,21.6,00.0,30.5,23.5,08.7,0000.0,0002.20,0001.00,0000.50
2023-02-28 03:14:00,,0816.3,4.98,0.00,21.7,21.0,00.0,30.5,23.3,08.6,0000.0,0002.15,0000.98,0000.50
2023-02-28 03:15:00,,0816.3,5.00,0.00,21.6,20.6,00.0,30.5,23.1,08.6,0000.0,0002.16,0001.00,0000.49
2023-02-28 03:16:00,,0816.3,5.00,0.00,21.6,20.2,00.0,30.5,23.0,08.7,0000.0,0001.99,0000.94,0000.48
2023-02-28 03:17:00,,0816.3,5.01,0.00,21.5,20.0,00.0,30.4,22.9,08.8,0000.0,0002.00,0000.92,0000.46
2023-02-28 03:18:00,,0816.4,4.99,0.00,21.4,19.8,00.0,30.4,22.9,08.7,0000.0,0002.56,0000.98,0000.46
2023-02-28 03:19:00,,0816.3,5.01,0.00,21.4,19.6,00.0,30.4,22.8,08.7,0000.0,0002.44,0000.96,0000.45
2023-02-28 03:20:00,,0816.3,4.99,0.00,21.3,19.5,00.0,30.4,22.7,08.7,0000.0,0002.61,0000.96,0000.46
2023-02-28 03:21:00,,0816.3,4.99,0.00,21.3,19.4,00.0,30.3,22.6,08.8,0000.0,0002.93,0000.98,0000.48
2023-02-28 03:22:00,,0816.4,4.99,0.00,21.3,20.2,00.0,30.3,22.9,08.7,0000.0,0003.12,0001.01,0000.48
2023-02-28 03:23:00,,0816.4,4.95,0.00,21.4,21.6,00.0,30.3,23.3,08.6,0000.0,0002.97,0000.94,0000.48
2023-02-28 03:24:00,,0816.4,4.99,0.00,21.6,22.5,00.0,30.3,23.6,08.5,0000.0,0003.03,0000.95,0000.48
2023-02-28 03:25:00,,0816.4,5.00,0.00,21.7,22.1,00.0,30.4,23.5,08.5,0000.0,0003.06,0000.97,0000.47
2023-02-28 03:26:00,,0816.3,5.00,0.00,21.6,21.4,00.0,30.4,23.3,08.5,0000.0,0003.18,0000.94,0000.47
2023-02-28 03:27:00,,0816.3,4.99,0.00,21.6,20.8,00.0,30.4,23.1,08.5,0000.0,0003.27,0000.96,0000.48
2023-02-28 03:28:00,,0816.3,5.01,0.00,21.5,20.4,00.0,30.4,23.0,08.6,0000.0,0003.30,0000.96,0000.49
2023-02-28 03:29:00,,0816.3,5.00,0.00,21.5,20.2,00.0,30.4,23.0,08.6,0000.0,0003.04,0000.93,0000.49
2023-02-28 03:30:00,,0816.4,4.99,0.00,21.5,20.0,00.0,30.3,23.0,08.7,0000.0,0002.98,0000.98,0000.50
2023-02-28 03:31:00,,0816.4,5.02,0.00,21.4,19.9,00.0,30.3,22.9,08.7,0000.0,0002.95,0000.99,0000.50
2023-02-28 03:32:00,,0816.4,5.00,0.00,21.4,19.7,00.0,30.3,22.8,08.7,0000.0,0002.56,0001.02,0000.50
2023-02-28 03:33:00,,0816.4,5.00,0.00,21.3,19.5,00.0,30.3,22.7,08.9,0000.0,0002.37,0000.97,0000.49
2023-02-28 03:34:00,,0816.3,5.01,0.00,21.3,19.5,00.0,30.3,22.7,08.9,0000.0,0002.41,0000.99,0000.49
2023-02-28 03:35:00,,0816.4,5.03,0.00,21.3,19.9,00.0,30.2,22.8,08.7,0000.0,0002.43,0001.00,0000.50
2023-02-28 03:36:00,,0816.4,4.94,0.00,21.4,21.4,00.0,30.2,23.2,08.6,0000.0,0002.46,0001.00,0000.50
2023-02-28 03:37:00,,0816.3,5.03,0.00,21.6,22.6,00.0,30.2,23.6,08.6,0000.0,0002.39,0001.03,0000.51
2023-02-28 03:38:00,,0816.3,5.01,0.00,21.7,22.6,00.0,30.3,23.7,08.5,0000.0,0002.35,0001.04,0000.51
2023-02-28 03:39:00,,0816.3,5.01,0.00,21.7,22.0,00.0,30.4,23.6,08.6,0000.0,0002.97,0001.04,0000.51
2023-02-28 03:40:00,,0816.3,5.00,0.00,21.7,21.5,00.0,30.4,23.5,08.7,0000.0,0003.42,0001.07,0000.51
2023-02-28 03:41:00,,0816.3,5.00,0.00,21.7,21.1,00.0,30.4,23.5,08.7,0000.0,0003.44,0001.05,0000.53
2023-02-28 03:42:00,,0816.3,4.99,0.00,21.7,20.8,00.0,30.4,23.4,08.6,0000.0,0003.41,0001.02,0000.53
2023-02-28 03:43:00,,0816.3,4.99,0.00,21.7,20.6,00.0,30.4,23.4,08.6,0000.0,0003.36,0001.01,0000.54
2023-02-28 03:44:00,,0816.3,5.00,0.00,21.7,20.4,00.0,30.4,23.4,08.5,0000.0,0003.48,0001.06,0000.56
2023-02-28 03:45:00,,0816.2,5.01,0.00,21.7,20.3,00.0,30.4,23.4,08.4,0000.0,0003.49,0001.06,0000.57
2023-02-28 03:46:00,,0816.2,5.01,0.00,21.7,20.2,00.0,30.4,23.3,08.5,0000.0,0003.43,0001.07,0000.59
2023-02-28 03:47:00,,0816.1,4.99,0.00,21.7,20.1,00.0,30.4,23.2,08.9,0000.0,0003.92,0001.16,0000.61
2023-02-28 03:48:00,,0816.1,4.99,0.00,21.6,19.9,00.0,30.4,23.1,09.0,0000.0,0004.44,0001.16,0000.62
2023-02-28 03:49:00,,0816.1,5.00,0.00,21.5,19.8,00.0,30.4,23.0,09.1,0000.0,0004.70,0001.22,0000.63
2023-02-28 03:50:00,,0816.1,5.00,0.00,21.5,19.6,00.0,30.3,22.9,09.2,0000.0,0004.34,0001.33,0000.65
2023-02-28 03:51:00,,0816.1,5.01,0.00,21.4,20.0,00.0,30.3,23.0,09.0,0000.0,0004.03,0001.39,0000.67
2023-02-28 03:52:00,,0816.1,4.98,0.00,21.6,21.3,00.0,30.3,23.3,08.5,0000.0,0003.94,0001.38,0000.67
2023-02-28 03:53:00,,0816.1,4.99,0.00,21.7,22.4,00.0,30.3,23.7,08.5,0000.0,0003.88,0001.40,0000.68
2023-02-28 03:54:00,,0816.1,4.99,0.00,21.8,22.3,00.0,30.4,23.7,08.3,0000.0,0003.94,0001.42,0000.68
2023-02-28 03:55:00,,0816.0,4.99,0.00,21.8,21.8,00.0,30.4,23.6,08.5,0000.0,0003.95,0001.41,0000.68
2023-02-28 03:56:00,,0816.0,5.00,0.00,21.8,21.3,00.0,30.4,23.5,08.5,0000.0,0003.94,0001.39,0000.67
2023-02-28 03:57:00,,0816.0,5.00,0.00,21.8,20.8,00.0,30.5,23.4,08.4,0000.0,0003.93,0001.38,0000.68
2023-02-28 03:58:00,,0816.1,5.01,0.00,21.7,20.5,00.0,30.5,23.3,08.5,0000.0,0003.77,0001.37,0000.67
2023-02-28 03:59:00,,0816.1,4.99,0.00,21.7,20.3,00.0,30.5,23.2,08.9,0000.0,0003.10,0001.38,0000.67
